Погода в Холтосоне

Россия / Республика Бурятия     50°17′44″N   103°18′49″E
темп.,
°C
ветер,
м/с
пор.,
м/с
влажн.,
%
обл.,
%
осадки,
мм/ч
давл.,
гПа
погр.,
м
4 марта, чт
чт423:00−15ссв118796 0.0 101520
02:00−20ссв1110057 0.0 101920
05:00−22ссв11100100 0.0 102320
08:00−23св01100100 0.1 102620
11:00−15ссв1185100 0.0 1027263
14:00−10ссв117499 0.0 1028669
17:00−10св117378 0.1 1028690
20:00−16ю128858 0.1 103120
5 марта, пт
пт523:00−18ююз12912 0.0 103420
02:00−19ююз12901 0.0 103520
05:00−19юз12890 0.0 103520
08:00−19юз22950 0.0 103520
11:00−10зюз27780 0.0 1032456
14:00−7юз38660 0.0 1028690
17:00−8юз38680 0.0 1025587
20:00−13юз33720 0.0 102636
6 марта, сб
сб623:00−14юз236933 0.0 102538
02:00−13юз237054 0.0 102533
05:00−12зюз2370100 0.0 102640
08:00−15зюз126966 0.0 102920
11:00−6зюз12640 0.0 1029272
14:00−3зюз24630 0.0 1027663
17:00−4юз25637 0.0 1024643
20:00−11ююз227642 0.0 102621
7 марта, вс
вс723:00−12юз226620 0.0 102521
02:00−12юз226721 0.0 102521
05:00−13юз12680 0.0 102421
08:00−13юз12680 0.0 102521
11:00−4зюз146331 0.0 1023313
14:00−2зюз256436 0.0 1020564
17:00−3зюз23651 0.0 1019453
20:00−10юз22761 0.0 102221
8 марта, пн
пн823:00−10юз22670 0.0 102321
02:00−11юз226815 0.0 102421
05:00−11юз22690 0.0 102421
08:00−11юз12680 0.0 102621
11:00−3зюз13640 0.0 1024275
14:000зюз24640 0.0 1022463
17:00−1юз126933 0.0 1020320
20:00−7ююз227267 0.0 102121